Other Public Products
Issued by NWS Grand Forks, ND

Home | Current Version | Previous Version | Graphics & Text | Print | Product List | Glossary On
Versions: 1 2 3 4 5 6 7 8 9 10 11 12 13 14 15 16 17 18 19 20 21 22 23 24 25 26 27 28 29 30 31 32 33 34 35 36 37 38 39 40 41 42 43 44 45 46 47 48 49 50
077
FPUS83 KFGF 070910
OPUFGF
PRAIRIE TO PINES WEATHER ROUNDUP
NATIONAL WEATHER SERVICE EASTERN NORTH DAKOTA/GRAND FORKS ND
300 AM CST SUN FEB 07 2016

 **SATELLITE DATA USED TO AUGMENT SKY COVER AT AUTOMATED STATIONS**
 *****  WEATHER ACROSS EASTERN NORTH DAKOTA  *****

CITY           SKY/WX    TMP DP  RH WIND       PRES   REMARKS
GRAND FORKS    SNOW      34  31  88 NW25G32   29.49R WCI  21
GRAND FORKS AF LGT SNOW  34  32  93 W25G40    29.49R FOG     WCI  21
GRAND CITY NWS   N/A     34 N/A N/A NW7         N/A
BUXTON           N/A     33  33  99 W22G36      N/A  WCI  21
DEVILS LAKE    MOCLDY    35  27  72 W31G38    29.55R WCI  22
FARGO          LGT RAIN  36  32  85 W22       29.56R
WAHPETON ARPT  CLOUDY    36  30  80 W21G29    29.62R
$$

 *****  WEATHER ACROSS CENTRAL AND WESTERN NORTH DAKOTA  *****

CITY           SKY/WX    TMP DP  RH WIND       PRES   REMARKS
JAMESTOWN      PTCLDY    36  24  62 W29G38    29.63R
BISMARCK       CLEAR     39  25  57 W26G35    29.79S
MINOT          MOCLDY    38  20  48 W24G37    29.69R
MINOT AFB      PTCLDY    35  23  62 W20G30    29.67R WCI  23
GARRISON         N/A     34  22  61 W20G28    29.75R WCI  23
WILLISTON      PTCLDY    35  21  56 W23G40    29.83S WCI  23
DICKINSON      CLEAR     32  24  72 W25G36    29.85F WCI  19
HETTINGER      CLOUDY    33  26  75 W24       29.94R WCI  20
$$

 *****  OTHER OBSERVATIONS NORTHEAST NORTH DAKOTA  *****

CITY           SKY/WX    TMP DP  RH WIND       PRES   REMARKS
WALHALLA       FAIR      36  36 100 NW16G26   29.45S
LANGDON        LGT SNOW  34  32  93 W31G39    29.47R WCI  20
CAVALIER       MIX PCPN  36  32  87 NW17G25   29.45R
GRAFTON        DRIZZLE   36  36 100 NW25G35   29.48R
CANDO          NOT AVBL
FORT TOTTEN      N/A     35  28  74 NW14      29.95S
ROLLA          FAIR      34  25  69 NW29G40   29.52R WCI  20
RUGBY          FAIR      32  27  80 W31G40    29.59R WCI  17
 ***** THE ABOVE OBSERVATIONS ARE NON NWS ARE NOT QUALITY
        CONTROLLED AND MAY MIS-REPORT RAIN FOR SNOW...
$$

 *****  OTHER OBSERVATIONS SOUTHEAST NORTH DAKOTA *****

CITY           SKY/WX    TMP DP  RH WIND       PRES   REMARKS
COOPERSTOWN    NOT AVBL
VALLEY CITY    FLURRIES  36  27  69 NW26G38   29.61R
OAKES          FAIR      36  27  69 NW30G43   29.65S
GWINNER        FAIR      37  28  70 W22G32    29.65R
SHEYENNE NWR     N/A     38  28  66 NW18      29.95S
BUFFALO          N/A     37  26  65 NW25G44     N/A
WYNDMERE       NOT AVBL
 ***** THE ABOVE OBSERVATIONS ARE NON NWS ARE NOT QUALITY
       CONTROLLED AND MAY MIS-REPORT RAIN FOR SNOW...
$$

  *****  WEATHER ACROSS NORTHERN MINNESOTA  *****

CITY           SKY/WX    TMP DP  RH WIND       PRES   REMARKS
FLAG ISLAND    DRIZZLE   30  28  93 SE3       29.34F
WARROAD        CLOUDY    36  30  80 SW8       29.37S
ROSEAU         CLOUDY    37  32  81 W12G17    29.37S
HALLOCK        CLOUDY    36  32  87 NW21      29.42R
THF RVR FALLS  CLOUDY    36  30  80 W14       29.43S
HALSTAD        NOT AVBL
FOSSTON        MIX PCPN  30  30 100 W14       29.46S WCI  20
BAUDETTE       CLOUDY    36  30  79 SW7       29.37S
WASKISH        CLOUDY    36  34  93 SW12      29.40F
CROOKSTON      FLURRIES  34  34 100 W21G28    29.47S WCI  22
$$
  *****  WEATHER ACROSS CENTRAL AND WEST MINNESOTA  *****

CITY           SKY/WX    TMP DP  RH WIND       PRES   REMARKS
BEMIDJI        LGT RAIN  34  32  92 W12       29.43F
PARK RAPIDS    LGT RAIN  35  32  88 W16       29.48S
WADENA         DRIZZLE   34  32  93 W16       29.52F WCI  23
DETROIT LAKES  LGT SNOW  34  32  93 W16G23    29.53S WCI  23
MOORHEAD       RAIN      34  32  93 W22G28    29.58R WCI  22
FERGUS FALLS   CLOUDY    36  34  93 W15       29.61S
ELBOW LAKE     LGT RAIN  35  32  90 W15G24    29.62S
MORRIS MN      CLOUDY    37  30  75 W17       29.64S
STAPLES        DRIZZLE   36  32  87 W13G20    29.53F
WHEATON        CLOUDY    39  30  70 W20G28    29.66S
$$
  *****  WEATHER ELSEWHERE ACROSS MINNESOTA  *****

CITY           SKY/WX    TMP DP  RH WIND       PRES   REMARKS
DULUTH         CLOUDY    32  29  88 SW12      29.51F WCI  23
INTRNTL FALLS  CLOUDY    34  31  88 VRB5      29.40F
ELY            CLOUDY    32  30  93 S12       29.46F WCI  23
CLOQUET        MOCLDY    32  28  86 S10       29.52F WCI  24
BRAINERD       CLOUDY    35  30  82 SW12      29.52F
HIBBING        CLOUDY    32  31  96 S7        29.48F
ALEXANDRIA     CLOUDY    37  31  78 W26G41    29.59F
SAINT CLOUD    PTCLDY    32  29  88 SW10      29.61S WCI  24
MINNEAPOLIS    MOCLDY    33  27  78 SW6       29.67S
$$

  *****  WEATHER ACROSS SOUTH DAKOTA  *****

CITY           SKY/WX    TMP DP  RH WIND       PRES   REMARKS
SIOUX FALLS    CLEAR     36  27  69 W18G25    29.83R
BROOKINGS      CLEAR     35  27  72 W22G30    29.76R WCI  23
WATERTOWN      CLEAR     36  25  64 W22G29    29.72S
HURON          CLEAR     35  27  72 W17       29.86R WCI  25
SISSETON         N/A     38  27  64 NW30G38   29.65R
ABERDEEN       CLOUDY    39  24  55 W23G30    29.76R
MITCHELL       CLEAR     37  28  70 W18G25    29.90R
PIERRE         CLOUDY    36  25  64 W18       29.94R
MOBRIDGE       CLEAR     38  25  59 NW22G33   29.83R
RAPID CITY     CLOUDY    37  16  42 NW26      30.04R
$$

  *****  SOME WEATHER IN NEARBY STATES *****

CITY           SKY/WX    TMP DP  RH WIND       PRES   REMARKS
GLASGOW MT     PTCLDY    31  21  66 NW25      30.04R WCI  17
GREAT FALLS MT CLEAR     23  15  71 SW13      30.28R WCI  11
CHEYENNE WY    CLEAR     35  16  45 W25G36    30.09S WCI  23
SCOTTSBLUFF NE PTCLDY    26  18  71 CALM      30.15R
OMAHA NE       CLOUDY    35  27  72 W3        29.93R
DES MOINES IA  CLOUDY    36  27  69 SW10      29.88F
DAVENPORT IA   PTCLDY    38  28  67 S17       29.90F
CHICAGO IL     CLOUDY    35  29  78 SW10      29.97F
EAU CLAIRE WI  CLOUDY    33  27  78 S8        29.68F
LA CROSSE WI   CLOUDY    36  29  75 VRB5      29.75S
$$

  *****  SOME NATIONAL WEATHER *****

CITY           SKY/WX    TMP DP  RH WIND       PRES   REMARKS
LA GUARDIA NY  PTCLDY    35  23  61 S5        30.21F
RALEIGH NC     CLOUDY    38  25  59 NE5       30.15F
ATLANTA GA     CLEAR     32  21  64 NW9       30.14S WCI  24
NEW ORLEANS LA CLEAR     41  31  67 NW3       30.28S
OKLAHOMA CITY  CLEAR     35  27  72 S10       30.17F
ALBUQUERQUE NM CLOUDY    36  14  40 N10       30.36F
SALT LAKE CITY MOCLDY    27  20  75 SE5       30.49F WCI  22
LOS ANGELES CA CLEAR     59  28  30 E3        30.16S
BOISE ID       CLEAR     30  27  88 CALM      30.50R FOG
SEATTLE WA     PTCLDY    39  34  82 CALM      30.48F
$$

*** WEATHER ACROSS MANITOBA...SASKATCHEWAN AND ONTARIO ***
                ***ONTARIO***

CITY           SKY/WX    TMP DP  RH WIND       PRES   REMARKS
GERALDTON      LGT SNOW   0  -6  78 E13       29.80F DRFTSNOWWCI -18
THUNDER BAY    NOT AVBL
SIOUX LOOKOUT  LGT SNOW  16  12  86 SE10G17   29.48F DRFTSNOWWCI   3
TORONTO        MOCLDY    28  23  80 SW6       30.10R WCI  22
BIG TROUT LK   CLEAR    -20 -26  76 E7        29.90F WCI -37
PICKLE LAKE    NOT AVBL
DRYDEN         LGT SNOW  23  21  93 E9        29.41F WCI  13
KENORA         LGT SNOW  28  28 100 SE8       29.34F WCI  20
$$
                *** MANITOBA***

CITY           SKY/WX    TMP DP  RH WIND       PRES   REMARKS
BRANDON        CLOUDY    34  28  80 W24G37    29.49R WCI  21
DAUPHIN        LGT SNOW  27  27 100 N5        29.48R WCI  21
ISLAND LAKE    FLURRIES  -2  -8  78 E8G18     29.65F WCI -17
PILOT MOUND      N/A     32  34 100 NW20G28     N/A  WCI  20
THE PAS        FLURRIES   7   3  85 N12G17    29.68R WCI  -9
THOMPSON       LGT SNOW  -8 -15  71 NE10      29.76R DRFTSNOWWCI -26
WINNIPEG       CLOUDY    27  25  93 NW21G28   29.41R WCI  13
LYNN LAKE      LGT SNOW  -6  -9  84 NE5       29.76R WCI -17
CHURCHILL      CLOUDY   -17 -22  76 SE9       30.12S WCI -36
$$
                ***SASKATCHEWAN***

CITY           SKY/WX    TMP DP  RH WIND       PRES   REMARKS
ESTEVAN        NOT AVBL
KINDERSLEY     CLEAR     27  19  74 NW21G29   30.03R WCI  13
LLOYDMINSTER   CLEAR     27  18  69 NW14G23   30.00R WCI  15
PRINCE ALBERT  LGT SNOW  19  12  73 NW24G36   29.83R WCI   2
REGINA         FLURRIES  30  23  74 NW33G44   29.74R WCI  14
YORKTON        FLURRIES  34  30  86 NW23G36   29.53R WCI  22
N. BATTLEFORD  MOCLDY    28  27  93 NW22G29   29.94R WCC1F1C2F2C3F3C4F4C5F5C6F6C7F7C8F8C9F9CaFaCbFbCcFcCdFdCe!



USA.gov is the U.S. government's official web portal to all federal, state and local government web resources and services.